GEFSSGP_prec_meanprecacc_162.txt.gz
Total_Precipitation_Accumulation
0.02 0.06 0.19 0.39 0.58 0.89 1.04 0.66 0.52 0.54 0.46 0.44 0.39 0.34 0.38 0.46 0.50 0.75 0.54 0.26 0.12 0.08 0.08 0.15 0.19 0.14 0.11 0.13 0.17 0.21 0.21 0.17 0.16 0.17 0.17 0.16 0.15 0.16 0.15 0.16 0.24 0.32 0.30 0.25 0.25 0.25 0.25 0.25 0.23
0.02 0.08 0.21 0.44 0.78 1.20 1.02 0.55 0.46 0.53 0.41 0.44 0.45 0.43 0.44 0.46 0.40 0.31 0.35 0.26 0.12 0.09 0.09 0.11 0.16 0.16 0.14 0.14 0.16 0.19 0.20 0.19 0.20 0.21 0.18 0.17 0.17 0.18 0.17 0.17 0.20 0.25 0.24 0.22 0.17 0.18 0.19 0.17 0.14
0.05 0.12 0.22 0.36 0.73 1.00 0.76 0.47 0.36 0.38 0.39 0.50 0.62 0.55 0.53 0.51 0.45 0.40 0.37 0.24 0.16 0.12 0.10 0.14 0.17 0.20 0.19 0.16 0.18 0.20 0.21 0.22 0.23 0.21 0.20 0.19 0.19 0.19 0.17 0.16 0.18 0.19 0.17 0.16 0.16 0.17 0.16 0.13 0.10
0.05 0.15 0.24 0.33 0.45 0.42 0.40 0.43 0.33 0.42 0.55 0.55 0.62 0.70 0.63 0.48 0.45 0.50 0.50 0.37 0.23 0.18 0.14 0.19 0.22 0.21 0.24 0.21 0.20 0.22 0.22 0.22 0.21 0.19 0.18 0.18 0.20 0.21 0.19 0.17 0.19 0.21 0.21 0.18 0.18 0.19 0.18 0.14 0.11
0.07 0.16 0.23 0.28 0.37 0.30 0.28 0.34 0.34 0.43 0.48 0.53 0.57 0.80 0.77 0.61 0.50 0.50 0.46 0.46 0.32 0.35 0.27 0.28 0.31 0.29 0.25 0.21 0.21 0.21 0.21 0.23 0.22 0.19 0.19 0.20 0.21 0.21 0.19 0.17 0.16 0.17 0.20 0.21 0.20 0.20 0.17 0.18 0.18
0.06 0.12 0.21 0.23 0.25 0.25 0.26 0.31 0.36 0.43 0.50 0.60 0.72 0.93 0.89 0.68 0.65 0.68 0.68 0.59 0.43 0.48 0.43 0.37 0.35 0.32 0.29 0.24 0.24 0.25 0.23 0.23 0.24 0.23 0.21 0.20 0.19 0.19 0.19 0.19 0.16 0.14 0.14 0.17 0.20 0.23 0.20 0.18 0.23
0.03 0.06 0.11 0.14 0.15 0.21 0.24 0.24 0.32 0.50 0.73 0.81 0.91 1.07 0.96 1.01 0.99 0.96 0.96 0.83 0.64 0.59 0.55 0.47 0.41 0.35 0.34 0.31 0.30 0.30 0.29 0.28 0.26 0.24 0.23 0.21 0.19 0.18 0.19 0.20 0.19 0.16 0.15 0.15 0.17 0.19 0.18 0.17 0.21
0.01 0.03 0.05 0.07 0.11 0.17 0.19 0.19 0.24 0.39 0.76 0.84 0.85 0.86 1.03 1.01 1.04 1.30 1.25 1.18 0.98 0.86 0.66 0.57 0.55 0.50 0.45 0.41 0.40 0.40 0.35 0.34 0.33 0.29 0.29 0.28 0.28 0.25 0.27 0.26 0.25 0.25 0.23 0.20 0.19 0.21 0.21 0.21 0.22
0.01 0.03 0.05 0.05 0.09 0.11 0.12 0.17 0.22 0.35 0.53 0.71 0.86 0.79 0.87 0.84 0.93 1.24 1.38 1.54 1.44 1.14 0.93 0.77 0.70 0.65 0.59 0.54 0.52 0.55 0.52 0.50 0.47 0.45 0.43 0.41 0.40 0.44 0.47 0.42 0.46 0.43 0.42 0.43 0.42 0.43 0.42 0.40 0.32
0.01 0.03 0.03 0.03 0.08 0.11 0.09 0.11 0.15 0.38 0.79 1.12 1.21 0.98 0.97 1.01 1.26 1.52 1.60 1.62 1.66 1.32 1.06 0.99 0.91 0.81 0.72 0.60 0.68 0.81 0.75 0.72 0.67 0.73 0.69 0.66 0.72 0.69 0.54 0.61 0.78 0.92 0.96 0.93 1.00 1.11 0.90 0.71 0.72
0.01 0.01 0.03 0.04 0.06 0.05 0.04 0.07 0.16 0.33 0.77 1.08 1.20 1.15 1.19 1.19 1.46 1.76 1.84 1.68 1.70 1.60 1.31 1.20 1.11 1.01 0.97 0.97 0.90 0.93 0.91 0.96 0.92 0.98 1.04 1.05 0.95 0.80 0.76 0.89 1.12 1.31 1.36 1.32 1.63 1.68 1.22 1.29 1.58
0.00 0.01 0.02 0.03 0.05 0.03 0.03 0.08 0.23 0.38 0.61 0.88 0.93 1.41 1.58 1.39 1.64 1.78 1.82 1.92 1.93 1.90 1.61 1.43 1.34 1.30 1.25 1.18 1.13 1.07 1.10 1.15 1.18 1.28 1.31 1.41 1.46 1.35 1.32 1.40 1.48 1.65 1.75 1.95 2.07 2.18 1.90 1.89 1.79
0.00 0.01 0.01 0.03 0.04 0.05 0.07 0.14 0.20 0.45 0.59 0.80 0.98 1.33 1.52 1.41 1.68 1.88 2.06 2.13 2.19 2.00 1.76 1.73 1.54 1.44 1.45 1.51 1.55 1.45 1.51 1.50 1.49 1.60 1.69 1.77 1.96 1.94 1.89 1.79 1.80 1.75 1.94 2.13 2.42 2.35 2.59 2.53 2.25
0.01 0.02 0.02 0.03 0.04 0.08 0.23 0.32 0.31 0.56 0.64 0.80 1.04 1.42 1.49 1.40 1.50 1.47 1.69 1.94 2.11 1.95 1.84 1.81 1.72 1.77 1.87 1.87 1.87 1.95 1.98 1.96 1.92 1.90 1.95 2.00 2.19 2.41 2.33 2.11 2.08 1.96 2.03 2.33 2.59 2.61 2.98 2.82 2.66
0.01 0.05 0.06 0.07 0.11 0.18 0.28 0.48 0.51 0.63 0.69 0.90 0.98 1.20 1.34 1.29 1.34 1.46 1.59 1.73 1.83 1.74 1.86 2.02 2.16 2.30 2.44 2.49 2.48 2.43 2.45 2.35 2.32 2.43 2.48 2.52 2.51 2.55 2.41 2.25 2.16 2.27 2.40 2.59 2.63 2.73 3.03 2.76 2.65
0.03 0.11 0.16 0.17 0.18 0.24 0.42 0.85 0.79 0.82 0.78 0.85 0.91 1.08 1.19 1.19 1.31 1.57 1.64 1.70 1.72 1.70 1.85 2.11 2.26 2.54 2.74 2.83 2.93 2.93 2.87 2.73 2.77 2.75 2.76 2.77 2.67 2.57 2.61 2.36 2.17 2.41 2.56 2.73 2.88 2.85 2.91 2.90 2.85
0.05 0.11 0.18 0.22 0.15 0.18 0.34 0.65 0.62 0.73 0.91 0.86 0.88 0.94 0.99 1.01 1.10 1.28 1.49 1.60 1.74 1.99 2.25 2.59 2.68 2.65 2.74 2.94 3.08 2.94 2.88 2.77 2.71 2.62 2.60 2.55 2.49 2.48 2.73 2.52 2.49 2.63 2.82 2.73 2.55 2.89 3.01 2.94 2.90
0.04 0.09 0.14 0.19 0.18 0.15 0.29 0.46 0.54 0.65 0.82 0.92 0.90 0.97 1.04 1.11 1.31 1.49 1.70 1.83 1.97 2.34 2.67 2.79 2.86 3.08 3.37 3.58 3.49 3.22 2.88 2.65 2.55 2.44 2.32 2.32 2.41 2.44 2.69 2.47 2.54 2.73 2.89 2.93 2.93 2.99 2.97 2.85 2.90
0.04 0.10 0.13 0.15 0.20 0.21 0.31 0.38 0.63 0.85 0.97 1.09 1.21 1.40 1.54 1.70 1.78 1.90 2.12 2.29 2.35 2.37 2.57 2.81 3.14 3.52 3.63 3.53 3.49 3.42 3.08 2.77 2.42 2.19 2.18 2.27 2.24 2.35 2.61 2.34 2.65 2.78 2.79 2.92 2.97 3.09 2.97 2.81 2.98
0.05 0.11 0.15 0.18 0.24 0.22 0.36 0.48 0.70 1.05 1.16 1.12 1.14 1.18 1.21 1.57 1.80 1.95 2.16 2.28 2.21 2.32 2.56 2.89 3.18 3.52 3.48 3.58 3.74 3.62 3.35 2.77 2.40 2.19 2.16 2.20 2.21 2.25 2.39 2.65 2.70 2.77 2.81 2.84 2.80 2.83 2.64 2.45 2.80
0.08 0.10 0.14 0.19 0.29 0.26 0.36 0.68 0.87 1.12 1.23 1.10 1.07 1.08 0.98 1.17 1.47 1.61 1.73 1.88 2.10 2.43 2.79 3.05 3.23 3.31 3.34 3.47 3.53 3.21 2.97 2.55 2.42 2.40 2.29 2.22 2.31 2.35 2.46 2.62 2.71 2.63 2.54 2.59 2.68 2.58 2.44 2.27 2.40
0.10 0.08 0.09 0.14 0.24 0.37 0.45 0.95 1.24 1.42 1.29 1.05 1.08 1.14 1.21 1.28 1.29 1.40 1.53 1.81 2.14 2.44 2.81 3.18 3.16 3.13 3.09 3.21 3.28 3.08 2.79 2.52 2.41 2.41 2.19 2.05 2.03 2.08 2.18 2.25 2.41 2.47 2.45 2.41 2.37 2.35 2.36 2.29 2.16
0.07 0.06 0.07 0.13 0.21 0.36 0.51 0.87 1.28 1.35 1.24 1.01 0.95 1.11 1.31 1.25 1.19 1.30 1.43 1.65 1.85 2.13 2.42 2.73 2.94 2.98 2.90 2.89 2.88 2.83 2.62 2.37 2.21 2.12 1.99 1.95 1.98 1.89 1.88 1.98 2.17 2.22 2.14 2.13 2.26 2.42 2.40 2.24 2.09
0.05 0.06 0.11 0.21 0.37 0.63 0.51 0.64 1.03 1.23 1.10 0.90 0.90 1.00 1.16 1.32 1.33 1.36 1.54 1.67 1.74 1.91 2.16 2.35 2.50 2.56 2.53 2.47 2.47 2.48 2.40 2.32 2.15 1.98 1.97 2.00 1.95 1.81 1.75 1.77 1.87 1.94 1.93 1.90 1.93 2.04 2.08 2.06 2.14
0.07 0.14 0.41 0.71 0.98 0.85 0.54 0.66 1.01 0.93 0.79 0.70 0.77 0.96 1.16 1.40 1.40 1.46 1.61 1.70 1.75 1.79 1.83 1.89 1.96 2.03 1.97 1.91 1.91 1.95 1.95 1.94 1.85 1.82 1.86 1.89 1.84 1.74 1.70 1.64 1.58 1.59 1.61 1.69 1.84 1.87 1.87 1.96 2.06
0.10 0.19 0.48 0.59 0.69 0.68 0.66 0.90 0.95 0.75 0.64 0.65 0.72 0.84 1.05 1.20 1.25 1.33 1.40 1.34 1.27 1.29 1.33 1.38 1.40 1.43 1.40 1.43 1.51 1.53 1.62 1.64 1.61 1.72 1.73 1.75 1.72 1.67 1.55 1.41 1.37 1.35 1.37 1.46 1.63 1.80 1.81 1.90 1.95
0.19 0.24 0.24 0.39 0.44 0.67 0.81 0.93 0.84 0.64 0.73 0.78 0.84 0.86 0.89 0.89 0.87 0.88 0.90 0.95 1.00 1.01 1.02 1.03 1.07 1.08 1.03 1.04 1.17 1.25 1.32 1.36 1.37 1.47 1.50 1.45 1.43 1.36 1.32 1.29 1.28 1.24 1.27 1.31 1.34 1.47 1.49 1.57 1.63
0.20 0.31 0.42 0.60 0.74 0.81 0.81 1.04 1.13 1.04 0.99 0.94 1.06 1.25 1.07 0.78 0.66 0.63 0.62 0.67 0.71 0.73 0.78 0.85 0.93 1.01 0.99 0.93 0.95 0.98 1.03 1.06 1.16 1.21 1.23 1.25 1.28 1.25 1.19 1.19 1.19 1.15 1.13 1.15 1.18 1.21 1.27 1.26 1.30
0.31 0.38 0.47 0.59 0.66 0.76 0.84 0.95 0.78 1.00 1.03 1.02 1.04 1.05 0.88 0.58 0.41 0.37 0.37 0.41 0.49 0.61 0.69 0.72 0.83 0.91 0.86 0.77 0.77 0.82 0.83 0.87 0.93 1.00 1.01 1.06 1.11 1.18 1.19 1.15 1.12 1.02 0.96 0.96 0.98 0.99 1.09 1.10 1.10
0.26 0.39 0.49 0.63 0.66 0.68 0.78 0.87 0.57 0.70 0.73 0.73 0.76 0.62 0.49 0.37 0.28 0.24 0.23 0.27 0.34 0.43 0.49 0.56 0.66 0.75 0.77 0.74 0.75 0.79 0.81 0.81 0.81 0.84 0.83 0.85 0.90 0.93 0.94 0.94 1.00 1.03 1.01 0.99 0.97 0.94 0.92 0.98 1.01

GEFSSGP_prec_meanprecacc_168.txt.gz
Total_Precipitation_Accumulation
0.02 0.06 0.20 0.40 0.62 0.99 1.11 0.68 0.52 0.54 0.46 0.44 0.39 0.35 0.39 0.48 0.54 0.86 0.55 0.26 0.12 0.08 0.08 0.15 0.19 0.14 0.12 0.15 0.20 0.23 0.23 0.19 0.18 0.19 0.20 0.19 0.18 0.19 0.20 0.26 0.40 0.46 0.40 0.34 0.35 0.33 0.33 0.32 0.27
0.02 0.08 0.22 0.46 0.85 1.35 1.11 0.56 0.46 0.54 0.42 0.44 0.45 0.43 0.45 0.47 0.40 0.32 0.35 0.26 0.12 0.09 0.10 0.12 0.17 0.17 0.15 0.15 0.20 0.23 0.23 0.22 0.23 0.23 0.20 0.19 0.19 0.20 0.21 0.25 0.32 0.37 0.34 0.30 0.26 0.26 0.25 0.21 0.16
0.05 0.12 0.23 0.39 0.80 1.11 0.81 0.48 0.37 0.39 0.39 0.50 0.62 0.55 0.55 0.52 0.46 0.41 0.38 0.25 0.17 0.13 0.10 0.16 0.19 0.22 0.20 0.17 0.20 0.23 0.25 0.25 0.26 0.24 0.22 0.21 0.21 0.21 0.21 0.22 0.24 0.26 0.25 0.23 0.22 0.23 0.21 0.17 0.13
0.05 0.15 0.25 0.34 0.48 0.44 0.41 0.43 0.33 0.43 0.56 0.55 0.62 0.71 0.63 0.49 0.46 0.51 0.51 0.37 0.23 0.19 0.16 0.20 0.23 0.22 0.25 0.22 0.23 0.26 0.26 0.26 0.24 0.22 0.22 0.21 0.22 0.24 0.22 0.21 0.23 0.27 0.27 0.24 0.24 0.24 0.23 0.18 0.15
0.07 0.16 0.24 0.33 0.39 0.32 0.29 0.34 0.34 0.43 0.49 0.54 0.57 0.82 0.79 0.62 0.52 0.52 0.48 0.48 0.33 0.38 0.31 0.30 0.33 0.31 0.27 0.24 0.24 0.24 0.25 0.28 0.25 0.23 0.23 0.22 0.24 0.23 0.21 0.20 0.20 0.22 0.25 0.25 0.24 0.24 0.20 0.22 0.23
0.06 0.13 0.25 0.26 0.27 0.26 0.26 0.31 0.36 0.43 0.51 0.61 0.72 0.95 0.92 0.74 0.70 0.70 0.70 0.63 0.45 0.51 0.48 0.41 0.39 0.37 0.34 0.29 0.29 0.31 0.28 0.28 0.28 0.27 0.24 0.23 0.21 0.21 0.21 0.21 0.19 0.16 0.18 0.21 0.24 0.27 0.24 0.23 0.27
0.03 0.07 0.13 0.16 0.16 0.22 0.24 0.24 0.32 0.51 0.73 0.82 0.93 1.09 0.99 1.07 1.04 1.00 0.99 0.87 0.68 0.63 0.59 0.50 0.44 0.38 0.38 0.36 0.36 0.38 0.36 0.34 0.32 0.29 0.25 0.22 0.20 0.20 0.20 0.21 0.20 0.18 0.17 0.18 0.20 0.22 0.21 0.20 0.24
0.01 0.04 0.06 0.09 0.13 0.18 0.19 0.19 0.24 0.39 0.76 0.85 0.89 0.91 1.08 1.06 1.07 1.35 1.31 1.23 1.05 0.95 0.75 0.63 0.60 0.57 0.52 0.46 0.43 0.45 0.40 0.38 0.39 0.34 0.32 0.30 0.29 0.26 0.28 0.27 0.26 0.26 0.25 0.22 0.20 0.22 0.23 0.23 0.24
0.01 0.06 0.07 0.06 0.10 0.13 0.13 0.17 0.23 0.35 0.53 0.74 0.89 0.83 0.90 0.87 0.95 1.27 1.46 1.62 1.53 1.24 1.04 0.87 0.78 0.74 0.69 0.61 0.54 0.58 0.55 0.52 0.52 0.50 0.47 0.44 0.44 0.46 0.50 0.44 0.47 0.44 0.44 0.45 0.43 0.44 0.44 0.41 0.33
0.01 0.05 0.05 0.04 0.08 0.11 0.10 0.12 0.16 0.39 0.81 1.14 1.22 1.00 0.98 1.04 1.29 1.56 1.64 1.67 1.72 1.40 1.14 1.07 1.00 0.87 0.78 0.67 0.74 0.90 0.81 0.76 0.75 0.80 0.76 0.75 0.81 0.77 0.59 0.63 0.79 0.93 0.97 0.94 1.01 1.12 0.91 0.72 0.75
0.01 0.02 0.03 0.04 0.06 0.05 0.04 0.08 0.16 0.34 0.80 1.11 1.22 1.15 1.20 1.25 1.52 1.82 1.91 1.73 1.76 1.67 1.40 1.30 1.21 1.10 1.06 1.11 1.01 1.05 1.04 1.07 1.03 1.07 1.11 1.13 1.01 0.87 0.82 0.93 1.14 1.33 1.38 1.36 1.66 1.71 1.24 1.32 1.62
0.00 0.01 0.02 0.03 0.05 0.03 0.03 0.08 0.24 0.39 0.63 0.90 0.94 1.42 1.60 1.44 1.70 1.86 1.91 2.00 2.01 1.98 1.70 1.53 1.45 1.42 1.39 1.31 1.27 1.18 1.20 1.24 1.28 1.35 1.36 1.47 1.54 1.43 1.40 1.48 1.53 1.70 1.81 2.03 2.14 2.25 1.94 1.92 1.82
0.00 0.01 0.02 0.03 0.04 0.05 0.07 0.14 0.20 0.46 0.60 0.80 0.99 1.34 1.55 1.46 1.74 1.97 2.18 2.24 2.30 2.12 1.86 1.83 1.65 1.55 1.57 1.64 1.67 1.54 1.62 1.58 1.56 1.67 1.74 1.81 2.01 2.00 1.97 1.86 1.86 1.80 1.98 2.18 2.48 2.40 2.63 2.56 2.28
0.01 0.02 0.02 0.03 0.04 0.08 0.23 0.32 0.31 0.56 0.65 0.81 1.06 1.44 1.52 1.45 1.55 1.52 1.79 2.08 2.23 2.06 1.93 1.91 1.81 1.87 1.98 1.98 1.98 2.05 2.06 2.03 1.98 1.95 1.99 2.03 2.24 2.46 2.39 2.17 2.14 2.03 2.10 2.41 2.64 2.65 3.02 2.85 2.69
0.01 0.06 0.07 0.07 0.11 0.18 0.28 0.49 0.51 0.64 0.70 0.92 1.01 1.22 1.37 1.33 1.39 1.50 1.65 1.84 1.96 1.85 1.97 2.14 2.28 2.43 2.56 2.59 2.56 2.49 2.51 2.41 2.39 2.52 2.54 2.55 2.54 2.59 2.47 2.32 2.23 2.34 2.46 2.63 2.67 2.77 3.08 2.81 2.69
0.03 0.11 0.18 0.19 0.19 0.24 0.42 0.86 0.80 0.83 0.80 0.88 0.94 1.10 1.21 1.23 1.34 1.59 1.68 1.77 1.83 1.81 1.97 2.22 2.36 2.66 2.87 2.94 3.04 3.02 2.94 2.79 2.85 2.84 2.84 2.82 2.73 2.62 2.67 2.43 2.24 2.48 2.61 2.77 2.93 2.90 2.97 2.97 2.92
0.06 0.13 0.21 0.25 0.17 0.18 0.34 0.67 0.63 0.73 0.91 0.87 0.89 0.95 1.00 1.04 1.13 1.30 1.51 1.63 1.79 2.06 2.34 2.71 2.80 2.76 2.86 3.05 3.20 3.04 2.98 2.87 2.80 2.71 2.71 2.62 2.54 2.52 2.78 2.59 2.56 2.68 2.87 2.77 2.59 2.95 3.07 3.01 2.99
0.06 0.10 0.15 0.20 0.19 0.16 0.29 0.47 0.57 0.67 0.82 0.92 0.91 0.97 1.05 1.13 1.34 1.52 1.72 1.86 2.02 2.40 2.75 2.90 2.96 3.19 3.48 3.68 3.59 3.34 3.00 2.76 2.63 2.54 2.42 2.39 2.46 2.50 2.75 2.55 2.59 2.78 2.96 3.01 3.00 3.08 3.05 2.92 2.98
0.04 0.10 0.14 0.16 0.21 0.22 0.32 0.41 0.66 0.86 0.98 1.09 1.22 1.41 1.55 1.72 1.82 1.93 2.15 2.32 2.38 2.43 2.66 2.91 3.24 3.61 3.72 3.63 3.58 3.50 3.18 2.88 2.51 2.27 2.25 2.33 2.30 2.41 2.67 2.41 2.70 2.85 2.88 2.99 3.02 3.16 3.05 2.88 3.05
0.06 0.11 0.15 0.19 0.24 0.23 0.36 0.48 0.70 1.07 1.17 1.13 1.15 1.19 1.22 1.58 1.82 1.99 2.19 2.30 2.25 2.37 2.64 2.99 3.27 3.60 3.57 3.68 3.83 3.71 3.45 2.86 2.48 2.27 2.23 2.25 2.26 2.28 2.42 2.70 2.75 2.83 2.90 2.91 2.86 2.89 2.70 2.52 2.87
0.08 0.10 0.15 0.20 0.30 0.27 0.37 0.69 0.89 1.14 1.26 1.12 1.08 1.09 1.00 1.18 1.49 1.63 1.76 1.90 2.13 2.47 2.87 3.12 3.31 3.40 3.44 3.56 3.61 3.29 3.07 2.64 2.50 2.47 2.34 2.26 2.34 2.38 2.48 2.65 2.74 2.67 2.60 2.65 2.74 2.64 2.49 2.34 2.47
0.10 0.08 0.09 0.14 0.25 0.38 0.46 0.97 1.27 1.45 1.31 1.06 1.09 1.15 1.22 1.29 1.31 1.41 1.55 1.82 2.16 2.48 2.89 3.27 3.25 3.22 3.17 3.29 3.35 3.16 2.86 2.60 2.47 2.46 2.24 2.08 2.05 2.10 2.20 2.27 2.43 2.49 2.48 2.46 2.41 2.39 2.41 2.36 2.24
0.07 0.06 0.07 0.13 0.21 0.37 0.53 0.90 1.32 1.39 1.28 1.03 0.96 1.12 1.32 1.27 1.21 1.31 1.45 1.67 1.87 2.16 2.47 2.82 3.04 3.07 2.97 2.97 2.97 2.93 2.70 2.44 2.27 2.20 2.08 2.01 2.02 1.91 1.90 2.00 2.19 2.24 2.16 2.16 2.29 2.46 2.43 2.29 2.16
0.05 0.06 0.11 0.21 0.38 0.66 0.53 0.66 1.06 1.26 1.14 0.92 0.92 1.03 1.17 1.33 1.34 1.38 1.56 1.70 1.77 1.95 2.20 2.41 2.58 2.65 2.61 2.55 2.55 2.57 2.47 2.38 2.20 2.04 2.05 2.06 1.98 1.83 1.77 1.79 1.89 1.95 1.95 1.92 1.97 2.08 2.12 2.10 2.19
0.07 0.15 0.44 0.76 1.05 0.92 0.58 0.68 1.02 0.94 0.80 0.71 0.77 0.97 1.18 1.42 1.42 1.47 1.63 1.72 1.77 1.81 1.86 1.95 2.01 2.10 2.04 1.98 1.98 2.03 2.03 2.01 1.91 1.87 1.92 1.94 1.87 1.76 1.71 1.65 1.60 1.60 1.63 1.71 1.88 1.90 1.91 1.99 2.10
0.10 0.19 0.52 0.68 0.80 0.76 0.72 0.95 0.99 0.76 0.64 0.65 0.72 0.85 1.08 1.23 1.27 1.35 1.42 1.35 1.29 1.31 1.36 1.43 1.45 1.48 1.46 1.51 1.60 1.62 1.72 1.71 1.66 1.77 1.77 1.79 1.75 1.69 1.57 1.44 1.38 1.36 1.39 1.48 1.66 1.84 1.84 1.93 1.98
0.19 0.24 0.25 0.41 0.48 0.74 0.89 1.00 0.91 0.66 0.74 0.79 0.85 0.88 0.91 0.92 0.91 0.91 0.93 0.97 1.02 1.04 1.05 1.07 1.11 1.12 1.07 1.09 1.23 1.31 1.38 1.41 1.42 1.51 1.54 1.49 1.47 1.39 1.35 1.32 1.30 1.25 1.28 1.32 1.37 1.50 1.52 1.61 1.66
0.20 0.32 0.43 0.63 0.80 0.88 0.87 1.13 1.23 1.08 1.01 0.95 1.07 1.27 1.10 0.81 0.73 0.69 0.66 0.69 0.73 0.75 0.82 0.89 0.96 1.06 1.03 0.96 0.98 1.00 1.07 1.11 1.21 1.26 1.27 1.30 1.33 1.29 1.21 1.21 1.21 1.16 1.14 1.16 1.19 1.24 1.30 1.28 1.33
0.31 0.39 0.49 0.61 0.69 0.83 0.93 1.07 0.94 1.07 1.06 1.03 1.06 1.10 0.92 0.60 0.46 0.44 0.40 0.44 0.51 0.63 0.71 0.75 0.87 0.96 0.91 0.81 0.81 0.85 0.86 0.91 0.98 1.05 1.06 1.11 1.16 1.22 1.21 1.17 1.13 1.03 0.97 0.97 1.00 1.01 1.11 1.13 1.12
0.27 0.40 0.50 0.66 0.69 0.72 0.86 0.96 0.62 0.73 0.75 0.74 0.78 0.68 0.56 0.40 0.30 0.26 0.26 0.29 0.36 0.45 0.50 0.58 0.68 0.78 0.81 0.77 0.78 0.83 0.85 0.85 0.86 0.89 0.88 0.90 0.95 0.97 0.96 0.95 1.02 1.04 1.03 1.00 0.99 0.96 0.95 1.01 1.03

GEFSSGP_prec_meanprecacc_174.txt.gz
Total_Precipitation_Accumulation
0.02 0.07 0.22 0.44 0.69 1.12 1.30 0.86 0.63 0.59 0.49 0.46 0.43 0.36 0.40 0.49 0.56 0.90 0.58 0.27 0.12 0.09 0.09 0.15 0.20 0.15 0.13 0.16 0.20 0.24 0.23 0.20 0.19 0.20 0.21 0.19 0.20 0.22 0.28 0.38 0.51 0.56 0.51 0.46 0.48 0.41 0.37 0.35 0.31
0.02 0.09 0.25 0.51 0.98 1.54 1.28 0.67 0.53 0.56 0.44 0.45 0.47 0.44 0.45 0.49 0.41 0.33 0.36 0.28 0.13 0.10 0.11 0.13 0.17 0.18 0.15 0.16 0.20 0.23 0.24 0.23 0.23 0.24 0.21 0.20 0.22 0.24 0.27 0.35 0.44 0.49 0.45 0.41 0.33 0.30 0.28 0.23 0.18
0.06 0.14 0.26 0.49 0.94 1.33 0.97 0.55 0.41 0.42 0.40 0.51 0.63 0.56 0.57 0.56 0.47 0.42 0.39 0.26 0.17 0.13 0.11 0.17 0.20 0.22 0.20 0.17 0.20 0.23 0.26 0.27 0.27 0.25 0.23 0.22 0.23 0.24 0.24 0.26 0.31 0.33 0.30 0.28 0.26 0.26 0.23 0.19 0.14
0.06 0.19 0.31 0.44 0.59 0.55 0.54 0.52 0.38 0.46 0.57 0.56 0.63 0.73 0.65 0.51 0.47 0.53 0.52 0.38 0.24 0.20 0.16 0.20 0.24 0.24 0.25 0.23 0.23 0.26 0.27 0.28 0.26 0.25 0.24 0.22 0.25 0.27 0.25 0.25 0.28 0.31 0.31 0.28 0.28 0.27 0.24 0.20 0.17
0.07 0.19 0.32 0.40 0.46 0.39 0.41 0.44 0.39 0.46 0.51 0.55 0.59 0.86 0.84 0.65 0.55 0.55 0.51 0.49 0.33 0.39 0.32 0.31 0.34 0.32 0.30 0.26 0.25 0.25 0.26 0.29 0.26 0.25 0.25 0.23 0.25 0.25 0.24 0.24 0.24 0.25 0.29 0.29 0.28 0.27 0.23 0.26 0.25
0.07 0.17 0.31 0.32 0.34 0.31 0.35 0.40 0.40 0.46 0.52 0.64 0.75 1.02 1.00 0.80 0.77 0.76 0.76 0.66 0.47 0.53 0.50 0.42 0.41 0.38 0.36 0.31 0.31 0.32 0.29 0.29 0.30 0.29 0.26 0.23 0.22 0.22 0.22 0.23 0.20 0.18 0.20 0.23 0.26 0.29 0.27 0.27 0.30
0.04 0.11 0.20 0.21 0.20 0.27 0.30 0.29 0.36 0.54 0.75 0.85 0.96 1.17 1.07 1.17 1.13 1.06 1.09 0.96 0.72 0.65 0.61 0.51 0.44 0.39 0.39 0.38 0.38 0.39 0.37 0.35 0.33 0.31 0.27 0.23 0.21 0.20 0.21 0.22 0.21 0.18 0.18 0.19 0.21 0.23 0.24 0.23 0.27
0.03 0.06 0.11 0.16 0.16 0.23 0.24 0.24 0.27 0.41 0.77 0.87 0.91 1.02 1.27 1.17 1.18 1.45 1.43 1.36 1.11 0.98 0.76 0.63 0.60 0.57 0.52 0.47 0.44 0.46 0.41 0.40 0.41 0.37 0.34 0.32 0.30 0.26 0.29 0.27 0.26 0.26 0.26 0.23 0.21 0.23 0.24 0.25 0.26
0.03 0.08 0.09 0.10 0.13 0.16 0.17 0.22 0.25 0.37 0.54 0.76 0.95 0.89 1.00 0.93 1.04 1.41 1.64 1.79 1.66 1.32 1.08 0.87 0.78 0.74 0.69 0.61 0.55 0.59 0.57 0.54 0.54 0.52 0.50 0.46 0.45 0.47 0.50 0.44 0.47 0.45 0.45 0.46 0.44 0.45 0.45 0.43 0.35
0.02 0.06 0.07 0.06 0.10 0.13 0.11 0.14 0.17 0.39 0.82 1.16 1.25 1.03 1.01 1.09 1.38 1.66 1.76 1.80 1.87 1.48 1.18 1.09 1.01 0.88 0.79 0.68 0.75 0.91 0.82 0.77 0.76 0.82 0.78 0.77 0.82 0.78 0.60 0.63 0.80 0.94 0.98 0.95 1.03 1.13 0.93 0.74 0.76
0.01 0.02 0.05 0.06 0.07 0.06 0.06 0.09 0.17 0.35 0.82 1.15 1.28 1.20 1.31 1.35 1.62 1.93 2.05 1.86 1.88 1.76 1.44 1.33 1.23 1.12 1.09 1.15 1.06 1.08 1.07 1.09 1.05 1.09 1.13 1.14 1.02 0.88 0.84 0.94 1.15 1.34 1.40 1.38 1.68 1.74 1.27 1.34 1.65
0.00 0.01 0.03 0.05 0.06 0.04 0.04 0.09 0.25 0.41 0.65 0.93 1.02 1.48 1.68 1.59 1.85 1.98 2.07 2.14 2.13 2.08 1.78 1.58 1.49 1.47 1.46 1.42 1.36 1.25 1.26 1.28 1.30 1.38 1.39 1.49 1.55 1.45 1.42 1.49 1.54 1.71 1.82 2.04 2.17 2.27 1.98 1.95 1.85
0.01 0.01 0.02 0.03 0.05 0.06 0.08 0.14 0.21 0.47 0.62 0.82 1.02 1.41 1.61 1.51 1.82 2.05 2.30 2.37 2.42 2.22 1.96 1.91 1.71 1.61 1.63 1.73 1.78 1.61 1.68 1.63 1.59 1.69 1.77 1.85 2.03 2.02 1.98 1.87 1.87 1.81 2.00 2.21 2.50 2.43 2.67 2.61 2.32
0.01 0.02 0.03 0.04 0.06 0.10 0.24 0.33 0.32 0.58 0.66 0.84 1.08 1.47 1.56 1.49 1.59 1.58 1.90 2.22 2.37 2.18 2.03 2.00 1.88 1.94 2.03 2.01 2.04 2.10 2.11 2.07 2.01 1.97 2.01 2.06 2.26 2.47 2.39 2.18 2.16 2.05 2.11 2.42 2.66 2.68 3.07 2.89 2.73
0.02 0.06 0.08 0.08 0.12 0.19 0.30 0.49 0.52 0.65 0.71 0.98 1.04 1.25 1.40 1.37 1.44 1.55 1.74 1.98 2.07 1.94 2.07 2.23 2.35 2.52 2.65 2.64 2.59 2.51 2.55 2.45 2.44 2.56 2.56 2.58 2.57 2.60 2.47 2.33 2.24 2.35 2.48 2.65 2.69 2.79 3.11 2.85 2.74
0.03 0.12 0.20 0.21 0.20 0.26 0.44 0.88 0.81 0.85 0.82 0.90 0.96 1.12 1.24 1.26 1.38 1.64 1.75 1.87 2.01 1.96 2.09 2.33 2.44 2.79 2.99 3.03 3.09 3.04 2.99 2.84 2.89 2.88 2.88 2.85 2.76 2.64 2.68 2.45 2.26 2.49 2.63 2.79 2.95 2.92 2.99 3.01 2.97
0.07 0.14 0.22 0.26 0.19 0.20 0.37 0.71 0.67 0.75 0.93 0.89 0.91 0.97 1.04 1.09 1.18 1.36 1.57 1.69 1.95 2.26 2.47 2.81 2.89 2.85 2.94 3.12 3.26 3.09 3.04 2.93 2.84 2.75 2.75 2.65 2.56 2.54 2.80 2.60 2.57 2.70 2.90 2.80 2.61 2.96 3.08 3.03 3.02
0.06 0.13 0.18 0.23 0.22 0.19 0.32 0.51 0.59 0.69 0.84 0.95 0.94 1.02 1.10 1.20 1.41 1.59 1.81 1.94 2.10 2.51 2.82 2.97 3.04 3.27 3.55 3.74 3.65 3.40 3.06 2.82 2.70 2.59 2.47 2.43 2.49 2.52 2.76 2.57 2.60 2.79 2.98 3.03 3.02 3.10 3.07 2.94 3.00
0.05 0.12 0.15 0.18 0.23 0.25 0.35 0.42 0.68 0.89 1.01 1.14 1.28 1.48 1.61 1.80 1.91 2.04 2.26 2.40 2.44 2.49 2.71 2.96 3.30 3.67 3.77 3.68 3.64 3.55 3.23 2.95 2.62 2.33 2.29 2.37 2.32 2.42 2.68 2.44 2.73 2.87 2.90 3.01 3.05 3.18 3.07 2.91 3.07
0.06 0.12 0.17 0.20 0.26 0.25 0.41 0.51 0.73 1.10 1.23 1.19 1.23 1.27 1.31 1.66 1.90 2.12 2.31 2.38 2.30 2.41 2.68 3.04 3.32 3.65 3.61 3.74 3.90 3.78 3.50 2.94 2.58 2.35 2.26 2.28 2.28 2.30 2.44 2.72 2.77 2.85 2.92 2.93 2.88 2.90 2.73 2.55 2.89
0.08 0.11 0.16 0.21 0.32 0.29 0.40 0.73 0.93 1.20 1.32 1.22 1.19 1.20 1.12 1.29 1.56 1.72 1.84 1.97 2.19 2.53 2.92 3.16 3.37 3.47 3.50 3.64 3.71 3.38 3.14 2.72 2.57 2.52 2.37 2.28 2.36 2.40 2.50 2.67 2.75 2.67 2.60 2.66 2.75 2.66 2.53 2.36 2.50
0.10 0.09 0.09 0.15 0.26 0.40 0.49 1.03 1.32 1.50 1.37 1.12 1.17 1.22 1.29 1.37 1.42 1.51 1.62 1.90 2.23 2.55 2.96 3.34 3.32 3.29 3.24 3.36 3.43 3.21 2.89 2.63 2.52 2.49 2.26 2.11 2.08 2.12 2.22 2.30 2.45 2.50 2.48 2.47 2.42 2.41 2.42 2.37 2.25
0.07 0.07 0.07 0.13 0.21 0.38 0.55 0.95 1.37 1.44 1.32 1.07 1.01 1.19 1.39 1.33 1.30 1.40 1.51 1.74 1.93 2.23 2.54 2.89 3.13 3.15 3.03 3.02 3.03 2.97 2.74 2.47 2.31 2.24 2.11 2.04 2.04 1.93 1.92 2.03 2.20 2.25 2.17 2.17 2.29 2.47 2.44 2.30 2.17
0.05 0.07 0.11 0.21 0.38 0.68 0.55 0.69 1.11 1.32 1.19 0.96 0.95 1.10 1.25 1.39 1.39 1.44 1.64 1.77 1.83 2.01 2.28 2.48 2.66 2.73 2.67 2.60 2.60 2.61 2.50 2.41 2.22 2.07 2.08 2.09 2.00 1.85 1.79 1.80 1.91 1.96 1.95 1.93 1.97 2.09 2.13 2.11 2.20
0.07 0.15 0.44 0.77 1.06 0.95 0.61 0.72 1.07 1.00 0.84 0.75 0.82 1.05 1.28 1.50 1.47 1.52 1.68 1.76 1.82 1.86 1.94 2.01 2.07 2.16 2.10 2.04 2.03 2.06 2.05 2.04 1.93 1.88 1.93 1.97 1.89 1.78 1.73 1.66 1.61 1.60 1.63 1.71 1.88 1.91 1.92 2.00 2.11
0.10 0.19 0.53 0.70 0.83 0.82 0.77 1.00 1.07 0.83 0.71 0.70 0.76 0.92 1.17 1.31 1.33 1.40 1.46 1.38 1.32 1.34 1.41 1.48 1.50 1.53 1.51 1.55 1.63 1.66 1.76 1.76 1.71 1.78 1.78 1.81 1.78 1.72 1.60 1.46 1.40 1.37 1.39 1.48 1.67 1.85 1.85 1.94 1.99
0.19 0.24 0.25 0.42 0.50 0.80 0.98 1.12 1.04 0.76 0.86 0.85 0.91 0.95 1.00 1.02 1.01 0.99 0.98 1.01 1.06 1.08 1.10 1.11 1.15 1.17 1.12 1.14 1.26 1.34 1.41 1.45 1.47 1.55 1.56 1.51 1.49 1.41 1.38 1.34 1.32 1.26 1.28 1.33 1.37 1.51 1.53 1.61 1.67
0.20 0.32 0.44 0.64 0.82 0.94 0.98 1.25 1.40 1.25 1.17 1.06 1.16 1.37 1.18 0.91 0.86 0.83 0.77 0.77 0.79 0.80 0.89 0.96 1.03 1.12 1.09 1.02 1.02 1.02 1.10 1.13 1.25 1.30 1.29 1.32 1.35 1.31 1.24 1.24 1.23 1.17 1.14 1.16 1.20 1.25 1.30 1.29 1.33
0.32 0.40 0.49 0.62 0.71 0.90 1.05 1.18 1.06 1.18 1.14 1.11 1.16 1.21 1.03 0.73 0.61 0.62 0.54 0.53 0.58 0.67 0.76 0.81 0.93 1.02 0.98 0.87 0.86 0.89 0.90 0.94 1.01 1.08 1.07 1.12 1.18 1.25 1.24 1.20 1.16 1.05 0.98 0.97 1.00 1.02 1.12 1.14 1.13
0.27 0.40 0.51 0.67 0.74 0.79 0.93 1.03 0.67 0.80 0.82 0.83 0.90 0.79 0.67 0.54 0.44 0.53 0.50 0.42 0.45 0.50 0.54 0.61 0.71 0.82 0.85 0.82 0.83 0.88 0.90 0.89 0.89 0.92 0.90 0.92 0.98 0.99 0.99 0.98 1.04 1.06 1.04 1.01 1.00 0.97 0.96 1.02 1.04

GEFSSGP_prec_meanprecacc_180.txt.gz
Total_Precipitation_Accumulation
0.02 0.08 0.23 0.45 0.70 1.14 1.34 0.90 0.68 0.62 0.53 0.49 0.44 0.36 0.40 0.50 0.56 0.91 0.58 0.28 0.13 0.09 0.11 0.18 0.22 0.16 0.14 0.16 0.21 0.24 0.23 0.20 0.20 0.21 0.23 0.24 0.32 0.41 0.41 0.46 0.56 0.61 0.56 0.50 0.52 0.45 0.40 0.39 0.35
0.02 0.10 0.26 0.53 0.99 1.56 1.31 0.69 0.56 0.59 0.47 0.48 0.49 0.44 0.46 0.49 0.41 0.34 0.36 0.28 0.14 0.10 0.13 0.15 0.19 0.19 0.16 0.16 0.21 0.24 0.24 0.23 0.24 0.25 0.23 0.22 0.25 0.30 0.34 0.42 0.52 0.58 0.55 0.50 0.38 0.33 0.31 0.26 0.21
0.06 0.14 0.26 0.50 0.95 1.35 0.99 0.57 0.43 0.44 0.43 0.53 0.65 0.57 0.58 0.57 0.48 0.42 0.39 0.26 0.18 0.14 0.12 0.19 0.24 0.24 0.21 0.18 0.21 0.24 0.26 0.27 0.27 0.27 0.25 0.24 0.24 0.28 0.31 0.36 0.44 0.43 0.38 0.34 0.30 0.29 0.26 0.21 0.17
0.07 0.19 0.32 0.45 0.60 0.56 0.56 0.55 0.42 0.49 0.61 0.58 0.64 0.75 0.66 0.51 0.48 0.53 0.53 0.39 0.25 0.21 0.17 0.22 0.28 0.27 0.27 0.23 0.24 0.27 0.27 0.29 0.27 0.27 0.26 0.26 0.28 0.31 0.31 0.31 0.34 0.34 0.34 0.31 0.31 0.31 0.27 0.22 0.19
0.08 0.20 0.33 0.41 0.47 0.40 0.43 0.48 0.44 0.50 0.55 0.56 0.60 0.88 0.86 0.66 0.56 0.56 0.52 0.50 0.34 0.40 0.34 0.32 0.37 0.36 0.32 0.27 0.26 0.26 0.27 0.30 0.27 0.27 0.27 0.26 0.28 0.29 0.28 0.28 0.27 0.28 0.32 0.32 0.31 0.31 0.25 0.29 0.29
0.08 0.17 0.32 0.33 0.35 0.32 0.38 0.44 0.44 0.50 0.56 0.65 0.76 1.03 1.02 0.83 0.80 0.78 0.78 0.67 0.48 0.54 0.51 0.44 0.44 0.42 0.40 0.34 0.32 0.33 0.30 0.30 0.31 0.30 0.27 0.25 0.24 0.25 0.26 0.26 0.24 0.21 0.23 0.26 0.30 0.33 0.29 0.30 0.34
0.05 0.11 0.21 0.22 0.21 0.28 0.32 0.31 0.39 0.57 0.79 0.87 0.97 1.18 1.10 1.22 1.19 1.10 1.11 0.98 0.73 0.66 0.62 0.54 0.49 0.44 0.46 0.43 0.40 0.40 0.38 0.37 0.36 0.33 0.28 0.24 0.23 0.23 0.24 0.25 0.24 0.23 0.23 0.24 0.26 0.28 0.28 0.28 0.31
0.03 0.07 0.12 0.17 0.17 0.23 0.26 0.26 0.30 0.44 0.80 0.88 0.92 1.03 1.29 1.21 1.25 1.51 1.48 1.39 1.14 1.00 0.78 0.65 0.63 0.61 0.57 0.54 0.49 0.48 0.43 0.42 0.43 0.38 0.36 0.33 0.32 0.28 0.31 0.31 0.30 0.32 0.32 0.27 0.24 0.28 0.27 0.31 0.30
0.03 0.08 0.10 0.11 0.14 0.17 0.19 0.24 0.28 0.40 0.57 0.78 0.96 0.90 1.01 0.96 1.11 1.50 1.70 1.83 1.71 1.35 1.10 0.89 0.79 0.76 0.72 0.66 0.59 0.64 0.60 0.57 0.56 0.54 0.52 0.47 0.45 0.47 0.51 0.46 0.50 0.50 0.50 0.50 0.48 0.50 0.48 0.48 0.39
0.03 0.06 0.07 0.07 0.10 0.13 0.12 0.16 0.20 0.41 0.84 1.18 1.27 1.03 1.02 1.11 1.45 1.75 1.81 1.82 1.89 1.50 1.21 1.11 1.02 0.89 0.82 0.71 0.77 0.93 0.85 0.78 0.76 0.83 0.78 0.77 0.82 0.78 0.60 0.64 0.82 0.97 1.02 0.99 1.06 1.17 0.96 0.77 0.79
0.02 0.03 0.05 0.06 0.07 0.07 0.07 0.11 0.19 0.36 0.83 1.15 1.28 1.21 1.32 1.37 1.68 1.99 2.11 1.92 1.91 1.77 1.46 1.34 1.24 1.14 1.11 1.18 1.07 1.09 1.08 1.09 1.05 1.09 1.13 1.14 1.02 0.89 0.84 0.95 1.17 1.36 1.42 1.39 1.71 1.76 1.29 1.36 1.67
0.01 0.01 0.03 0.05 0.07 0.05 0.06 0.11 0.27 0.42 0.66 0.93 1.02 1.50 1.70 1.62 1.90 2.05 2.15 2.24 2.20 2.12 1.80 1.60 1.50 1.49 1.49 1.44 1.37 1.26 1.27 1.29 1.32 1.39 1.40 1.49 1.55 1.45 1.42 1.49 1.54 1.71 1.83 2.05 2.18 2.29 1.99 1.97 1.87
0.01 0.01 0.02 0.04 0.06 0.07 0.09 0.15 0.22 0.48 0.63 0.82 1.03 1.42 1.63 1.55 1.88 2.13 2.43 2.52 2.54 2.31 2.00 1.95 1.73 1.63 1.65 1.74 1.79 1.62 1.69 1.64 1.61 1.72 1.79 1.86 2.04 2.03 1.99 1.87 1.87 1.82 2.00 2.21 2.52 2.45 2.69 2.63 2.34
0.01 0.03 0.03 0.04 0.06 0.11 0.25 0.33 0.32 0.59 0.67 0.84 1.08 1.48 1.57 1.51 1.63 1.64 2.02 2.38 2.48 2.26 2.09 2.05 1.92 1.96 2.05 2.03 2.05 2.11 2.12 2.08 2.03 2.00 2.04 2.08 2.28 2.48 2.41 2.19 2.17 2.06 2.12 2.43 2.67 2.70 3.09 2.92 2.76
0.02 0.06 0.08 0.09 0.13 0.20 0.30 0.50 0.53 0.67 0.72 0.98 1.05 1.25 1.40 1.38 1.46 1.58 1.81 2.11 2.21 2.03 2.14 2.30 2.41 2.59 2.69 2.67 2.62 2.53 2.57 2.48 2.47 2.59 2.59 2.62 2.59 2.61 2.49 2.35 2.25 2.36 2.49 2.65 2.70 2.81 3.14 2.88 2.78
0.04 0.13 0.20 0.21 0.21 0.27 0.45 0.89 0.83 0.87 0.84 0.91 0.97 1.13 1.25 1.27 1.40 1.67 1.81 1.97 2.16 2.06 2.17 2.42 2.53 2.87 3.05 3.09 3.14 3.08 3.02 2.87 2.92 2.92 2.92 2.89 2.79 2.67 2.71 2.48 2.28 2.50 2.64 2.81 2.97 2.94 3.02 3.03 3.00
0.07 0.14 0.22 0.27 0.19 0.21 0.38 0.72 0.68 0.77 0.95 0.90 0.93 0.99 1.06 1.11 1.21 1.40 1.64 1.82 2.11 2.39 2.58 2.92 3.03 2.97 3.06 3.24 3.37 3.18 3.09 2.96 2.87 2.79 2.79 2.69 2.60 2.57 2.83 2.63 2.59 2.72 2.91 2.82 2.63 2.99 3.11 3.05 3.04
0.06 0.13 0.18 0.23 0.22 0.20 0.33 0.52 0.61 0.70 0.85 0.96 0.96 1.05 1.13 1.24 1.45 1.67 1.96 2.10 2.27 2.68 2.96 3.08 3.17 3.40 3.70 3.88 3.77 3.52 3.15 2.87 2.74 2.63 2.51 2.45 2.51 2.54 2.79 2.59 2.62 2.81 3.00 3.05 3.04 3.14 3.10 2.97 3.04
0.05 0.12 0.15 0.19 0.24 0.25 0.36 0.43 0.69 0.90 1.02 1.14 1.29 1.50 1.65 1.84 1.95 2.13 2.41 2.57 2.59 2.65 2.83 3.05 3.40 3.79 3.90 3.78 3.72 3.63 3.29 3.01 2.67 2.38 2.33 2.41 2.36 2.44 2.71 2.46 2.75 2.88 2.93 3.04 3.07 3.20 3.10 2.94 3.10
0.06 0.12 0.17 0.21 0.26 0.26 0.41 0.51 0.74 1.11 1.23 1.20 1.25 1.29 1.34 1.69 1.94 2.17 2.40 2.47 2.39 2.51 2.76 3.10 3.39 3.74 3.70 3.80 3.97 3.86 3.60 3.04 2.68 2.48 2.35 2.34 2.34 2.35 2.47 2.75 2.79 2.87 2.95 2.95 2.89 2.92 2.75 2.57 2.92
0.08 0.11 0.16 0.21 0.32 0.29 0.40 0.73 0.94 1.21 1.33 1.23 1.21 1.22 1.17 1.33 1.60 1.76 1.90 2.02 2.25 2.60 2.98 3.20 3.42 3.55 3.60 3.74 3.82 3.50 3.28 2.84 2.69 2.64 2.46 2.35 2.42 2.45 2.54 2.70 2.78 2.70 2.64 2.68 2.77 2.67 2.54 2.39 2.53
0.10 0.09 0.09 0.15 0.26 0.40 0.50 1.04 1.33 1.51 1.37 1.13 1.18 1.23 1.33 1.42 1.45 1.55 1.66 1.94 2.27 2.61 3.04 3.41 3.39 3.39 3.33 3.46 3.55 3.33 2.98 2.69 2.57 2.53 2.31 2.17 2.14 2.19 2.28 2.35 2.49 2.54 2.52 2.50 2.45 2.43 2.44 2.39 2.28
0.07 0.07 0.08 0.14 0.22 0.39 0.56 0.95 1.37 1.44 1.32 1.08 1.02 1.20 1.41 1.35 1.34 1.45 1.54 1.78 1.98 2.30 2.64 2.99 3.22 3.26 3.14 3.11 3.13 3.14 2.88 2.55 2.38 2.30 2.17 2.09 2.10 1.99 1.98 2.07 2.24 2.27 2.20 2.19 2.31 2.49 2.46 2.32 2.20
0.06 0.07 0.12 0.22 0.40 0.69 0.55 0.69 1.11 1.32 1.19 0.96 0.96 1.11 1.25 1.40 1.40 1.47 1.68 1.83 1.90 2.10 2.39 2.59 2.76 2.83 2.77 2.70 2.68 2.71 2.63 2.48 2.28 2.11 2.11 2.12 2.03 1.88 1.83 1.84 1.93 1.98 1.98 1.95 1.98 2.10 2.15 2.14 2.23
0.07 0.15 0.45 0.78 1.07 0.95 0.61 0.72 1.07 1.00 0.84 0.75 0.82 1.05 1.29 1.51 1.48 1.55 1.71 1.81 1.88 1.93 2.02 2.10 2.16 2.25 2.21 2.16 2.13 2.13 2.11 2.09 1.97 1.91 1.96 1.99 1.91 1.79 1.74 1.68 1.63 1.62 1.65 1.74 1.91 1.93 1.94 2.02 2.13
0.10 0.19 0.53 0.70 0.83 0.82 0.77 1.00 1.07 0.83 0.71 0.71 0.76 0.93 1.18 1.33 1.35 1.42 1.49 1.42 1.37 1.41 1.48 1.56 1.58 1.61 1.60 1.65 1.74 1.74 1.81 1.80 1.74 1.81 1.81 1.83 1.80 1.73 1.61 1.48 1.41 1.38 1.40 1.50 1.69 1.87 1.87 1.95 2.00
0.20 0.24 0.26 0.42 0.50 0.80 0.98 1.12 1.04 0.76 0.86 0.85 0.91 0.97 1.02 1.05 1.04 1.03 1.02 1.07 1.12 1.14 1.15 1.17 1.22 1.25 1.19 1.22 1.35 1.43 1.46 1.49 1.51 1.59 1.61 1.54 1.51 1.43 1.39 1.36 1.34 1.29 1.31 1.35 1.40 1.54 1.55 1.64 1.69
0.21 0.33 0.44 0.65 0.82 0.94 0.98 1.25 1.40 1.25 1.17 1.06 1.16 1.38 1.20 0.94 0.88 0.88 0.83 0.83 0.85 0.87 0.96 1.04 1.10 1.20 1.16 1.09 1.11 1.10 1.14 1.17 1.29 1.35 1.34 1.35 1.38 1.35 1.26 1.27 1.26 1.21 1.18 1.19 1.24 1.27 1.33 1.33 1.36
0.32 0.40 0.50 0.63 0.72 0.90 1.05 1.18 1.06 1.18 1.14 1.12 1.16 1.22 1.05 0.74 0.63 0.66 0.61 0.62 0.66 0.75 0.86 0.90 1.04 1.13 1.05 0.94 0.94 0.97 0.95 0.98 1.05 1.13 1.11 1.15 1.22 1.29 1.28 1.23 1.19 1.08 1.02 1.01 1.04 1.05 1.14 1.16 1.15
0.27 0.40 0.51 0.67 0.74 0.79 0.93 1.03 0.67 0.80 0.82 0.83 0.91 0.80 0.68 0.56 0.46 0.57 0.56 0.51 0.54 0.58 0.64 0.72 0.83 0.95 0.93 0.89 0.91 0.95 0.97 0.94 0.93 0.96 0.95 0.96 1.01 1.02 1.01 1.01 1.07 1.09 1.07 1.04 1.03 1.00 0.98 1.03 1.05

GEFSSGP_prec_meanprecacc_186.txt.gz
Total_Precipitation_Accumulation
0.02 0.08 0.23 0.45 0.70 1.14 1.35 0.91 0.69 0.64 0.54 0.50 0.44 0.37 0.41 0.50 0.57 0.92 0.59 0.28 0.13 0.10 0.12 0.20 0.25 0.18 0.16 0.18 0.23 0.26 0.25 0.23 0.22 0.23 0.26 0.32 0.42 0.51 0.49 0.51 0.61 0.66 0.60 0.54 0.56 0.50 0.46 0.46 0.39
0.02 0.10 0.26 0.53 0.99 1.57 1.32 0.70 0.57 0.60 0.48 0.50 0.50 0.45 0.47 0.50 0.41 0.34 0.37 0.28 0.14 0.10 0.13 0.15 0.21 0.21 0.19 0.18 0.22 0.25 0.26 0.25 0.25 0.28 0.28 0.31 0.36 0.41 0.42 0.49 0.57 0.63 0.59 0.53 0.42 0.38 0.35 0.33 0.26
0.06 0.14 0.26 0.50 0.95 1.35 1.01 0.58 0.44 0.45 0.44 0.54 0.66 0.57 0.58 0.58 0.48 0.42 0.39 0.26 0.18 0.15 0.12 0.20 0.26 0.27 0.24 0.19 0.22 0.25 0.28 0.29 0.29 0.29 0.29 0.30 0.32 0.37 0.37 0.42 0.49 0.48 0.42 0.37 0.33 0.33 0.29 0.26 0.21
0.07 0.19 0.32 0.45 0.60 0.56 0.56 0.55 0.42 0.50 0.61 0.58 0.65 0.77 0.67 0.51 0.48 0.53 0.53 0.39 0.25 0.21 0.18 0.23 0.30 0.30 0.29 0.25 0.24 0.28 0.31 0.32 0.30 0.30 0.29 0.30 0.33 0.35 0.35 0.35 0.40 0.39 0.37 0.33 0.34 0.35 0.32 0.26 0.22
0.08 0.20 0.33 0.41 0.47 0.40 0.43 0.49 0.45 0.51 0.56 0.57 0.61 0.89 0.87 0.66 0.56 0.56 0.52 0.50 0.35 0.41 0.35 0.34 0.40 0.39 0.36 0.29 0.27 0.27 0.29 0.34 0.33 0.31 0.30 0.29 0.31 0.34 0.33 0.33 0.32 0.32 0.34 0.34 0.35 0.36 0.30 0.33 0.33
0.08 0.17 0.32 0.33 0.35 0.32 0.38 0.45 0.45 0.51 0.56 0.66 0.77 1.04 1.03 0.83 0.81 0.78 0.78 0.68 0.48 0.55 0.53 0.47 0.49 0.48 0.47 0.38 0.34 0.35 0.34 0.33 0.34 0.33 0.29 0.28 0.28 0.31 0.32 0.32 0.29 0.25 0.25 0.29 0.34 0.39 0.35 0.35 0.39
0.05 0.11 0.21 0.22 0.21 0.28 0.32 0.31 0.39 0.58 0.79 0.87 0.98 1.19 1.11 1.23 1.20 1.10 1.11 0.98 0.74 0.68 0.65 0.58 0.55 0.50 0.54 0.50 0.43 0.43 0.42 0.40 0.39 0.36 0.31 0.28 0.27 0.29 0.30 0.30 0.29 0.26 0.26 0.28 0.31 0.35 0.34 0.32 0.36
0.03 0.07 0.12 0.17 0.17 0.24 0.26 0.26 0.30 0.45 0.81 0.88 0.92 1.05 1.31 1.22 1.26 1.53 1.49 1.41 1.16 1.03 0.82 0.69 0.69 0.68 0.66 0.63 0.54 0.52 0.46 0.46 0.46 0.41 0.38 0.37 0.37 0.34 0.37 0.35 0.34 0.35 0.35 0.32 0.31 0.35 0.34 0.36 0.34
0.03 0.08 0.10 0.11 0.14 0.17 0.19 0.24 0.28 0.40 0.57 0.78 0.96 0.90 1.02 0.97 1.13 1.52 1.72 1.86 1.74 1.38 1.14 0.93 0.83 0.82 0.78 0.71 0.65 0.69 0.66 0.62 0.60 0.58 0.55 0.51 0.50 0.52 0.55 0.50 0.56 0.56 0.56 0.57 0.56 0.58 0.55 0.53 0.43
0.03 0.06 0.07 0.07 0.10 0.13 0.13 0.16 0.20 0.41 0.84 1.18 1.27 1.03 1.02 1.12 1.48 1.78 1.83 1.84 1.91 1.52 1.23 1.14 1.05 0.92 0.86 0.75 0.81 1.00 0.91 0.83 0.82 0.88 0.81 0.80 0.87 0.83 0.64 0.72 0.93 1.07 1.13 1.09 1.16 1.27 1.02 0.81 0.82
0.02 0.03 0.05 0.07 0.07 0.07 0.07 0.12 0.19 0.36 0.83 1.15 1.29 1.22 1.32 1.38 1.72 2.05 2.15 1.94 1.93 1.79 1.47 1.37 1.27 1.17 1.17 1.24 1.11 1.14 1.12 1.14 1.10 1.14 1.17 1.17 1.04 0.92 0.88 1.03 1.28 1.48 1.54 1.50 1.79 1.81 1.32 1.38 1.71
0.01 0.01 0.03 0.05 0.07 0.05 0.06 0.11 0.27 0.43 0.66 0.93 1.02 1.50 1.71 1.64 1.94 2.10 2.20 2.27 2.22 2.14 1.82 1.63 1.54 1.53 1.54 1.49 1.42 1.31 1.32 1.32 1.36 1.44 1.43 1.52 1.58 1.48 1.47 1.53 1.59 1.77 1.90 2.13 2.22 2.33 2.03 2.01 1.89
0.01 0.01 0.02 0.04 0.06 0.07 0.09 0.15 0.22 0.48 0.63 0.82 1.03 1.42 1.64 1.58 1.94 2.20 2.50 2.58 2.58 2.34 2.03 1.98 1.77 1.67 1.70 1.78 1.83 1.66 1.73 1.68 1.65 1.76 1.83 1.89 2.07 2.05 2.02 1.90 1.90 1.84 2.03 2.24 2.55 2.48 2.73 2.67 2.37
0.01 0.03 0.03 0.04 0.06 0.11 0.25 0.34 0.32 0.59 0.67 0.84 1.08 1.48 1.57 1.54 1.76 1.76 2.13 2.46 2.56 2.30 2.12 2.08 1.95 2.00 2.09 2.06 2.08 2.14 2.16 2.13 2.07 2.03 2.07 2.12 2.31 2.51 2.43 2.22 2.20 2.08 2.14 2.45 2.70 2.74 3.14 2.98 2.82
0.02 0.06 0.08 0.09 0.13 0.20 0.30 0.50 0.53 0.67 0.72 0.98 1.05 1.25 1.40 1.39 1.50 1.64 1.91 2.19 2.29 2.09 2.17 2.32 2.44 2.62 2.73 2.71 2.64 2.56 2.61 2.52 2.51 2.63 2.63 2.66 2.63 2.66 2.53 2.39 2.29 2.40 2.53 2.68 2.72 2.84 3.17 2.93 2.84
0.04 0.13 0.21 0.21 0.21 0.27 0.45 0.89 0.83 0.87 0.84 0.91 0.97 1.13 1.25 1.27 1.41 1.69 1.84 2.03 2.22 2.13 2.21 2.45 2.56 2.91 3.10 3.12 3.17 3.11 3.05 2.91 2.97 2.97 2.96 2.94 2.84 2.73 2.78 2.54 2.34 2.56 2.68 2.85 3.01 2.97 3.04 3.08 3.06
0.07 0.14 0.22 0.27 0.19 0.21 0.38 0.72 0.68 0.77 0.95 0.90 0.93 0.99 1.06 1.11 1.21 1.41 1.65 1.85 2.15 2.46 2.66 2.98 3.08 3.02 3.11 3.29 3.41 3.22 3.13 3.01 2.93 2.84 2.84 2.74 2.65 2.64 2.91 2.71 2.67 2.77 2.96 2.87 2.67 3.03 3.15 3.11 3.11
0.06 0.13 0.18 0.23 0.22 0.20 0.33 0.52 0.61 0.70 0.86 0.96 0.96 1.05 1.13 1.24 1.46 1.68 1.97 2.13 2.32 2.74 3.04 3.18 3.27 3.48 3.76 3.94 3.83 3.58 3.20 2.92 2.80 2.69 2.57 2.52 2.57 2.60 2.86 2.65 2.67 2.85 3.07 3.12 3.10 3.21 3.16 3.03 3.10
0.05 0.12 0.15 0.19 0.24 0.25 0.36 0.43 0.69 0.90 1.02 1.14 1.29 1.50 1.65 1.84 1.96 2.13 2.42 2.61 2.66 2.71 2.89 3.11 3.50 3.88 3.99 3.86 3.79 3.70 3.36 3.06 2.74 2.45 2.41 2.50 2.44 2.51 2.78 2.52 2.80 2.93 3.00 3.12 3.15 3.28 3.17 2.99 3.15
0.06 0.12 0.17 0.21 0.26 0.26 0.41 0.51 0.74 1.11 1.23 1.20 1.25 1.30 1.35 1.70 1.95 2.18 2.42 2.51 2.45 2.55 2.80 3.14 3.45 3.80 3.77 3.88 4.04 3.94 3.68 3.10 2.75 2.56 2.44 2.43 2.43 2.42 2.53 2.83 2.85 2.94 3.03 3.04 2.99 3.01 2.83 2.63 2.97
0.08 0.11 0.16 0.21 0.32 0.29 0.40 0.74 0.94 1.21 1.33 1.23 1.21 1.22 1.18 1.34 1.61 1.77 1.92 2.06 2.30 2.65 3.04 3.25 3.47 3.59 3.65 3.80 3.89 3.57 3.35 2.90 2.74 2.71 2.53 2.42 2.49 2.52 2.62 2.79 2.87 2.80 2.72 2.77 2.86 2.77 2.65 2.47 2.59
0.10 0.09 0.09 0.15 0.27 0.41 0.50 1.04 1.33 1.51 1.37 1.13 1.18 1.23 1.33 1.43 1.47 1.56 1.67 1.96 2.30 2.65 3.09 3.47 3.47 3.45 3.39 3.52 3.61 3.39 3.04 2.75 2.61 2.59 2.38 2.24 2.20 2.25 2.36 2.43 2.58 2.64 2.60 2.60 2.54 2.51 2.53 2.48 2.36
0.07 0.07 0.08 0.14 0.22 0.39 0.56 0.95 1.37 1.44 1.32 1.08 1.02 1.20 1.42 1.37 1.36 1.46 1.55 1.80 2.01 2.33 2.67 3.04 3.30 3.33 3.20 3.16 3.19 3.21 2.98 2.65 2.45 2.36 2.23 2.17 2.17 2.04 2.04 2.14 2.32 2.35 2.26 2.25 2.38 2.57 2.54 2.39 2.26
0.06 0.07 0.12 0.22 0.40 0.69 0.55 0.70 1.11 1.32 1.19 0.96 0.96 1.11 1.25 1.41 1.41 1.48 1.69 1.85 1.94 2.14 2.42 2.63 2.82 2.88 2.82 2.74 2.74 2.79 2.72 2.60 2.37 2.18 2.18 2.19 2.10 1.93 1.87 1.89 1.99 2.03 2.03 2.00 2.04 2.17 2.23 2.21 2.31
0.07 0.15 0.46 0.78 1.08 0.95 0.61 0.72 1.07 1.00 0.84 0.75 0.82 1.05 1.29 1.51 1.49 1.56 1.72 1.82 1.90 1.96 2.05 2.14 2.20 2.30 2.26 2.22 2.19 2.19 2.19 2.19 2.07 2.00 2.05 2.07 1.99 1.84 1.79 1.72 1.67 1.66 1.69 1.77 1.96 1.99 1.99 2.08 2.20
0.10 0.19 0.53 0.71 0.84 0.82 0.77 1.00 1.07 0.83 0.71 0.71 0.76 0.93 1.18 1.33 1.36 1.43 1.49 1.43 1.40 1.44 1.50 1.59 1.61 1.67 1.65 1.70 1.80 1.79 1.88 1.87 1.81 1.89 1.89 1.92 1.88 1.79 1.67 1.53 1.45 1.41 1.42 1.52 1.72 1.91 1.91 2.00 2.07
0.20 0.24 0.26 0.43 0.50 0.80 0.98 1.12 1.04 0.76 0.86 0.85 0.91 0.97 1.02 1.05 1.05 1.03 1.03 1.08 1.14 1.16 1.17 1.19 1.24 1.28 1.23 1.26 1.40 1.48 1.52 1.55 1.57 1.66 1.69 1.62 1.59 1.48 1.44 1.39 1.37 1.31 1.33 1.37 1.43 1.58 1.59 1.68 1.74
0.21 0.33 0.45 0.65 0.83 0.94 0.98 1.25 1.40 1.25 1.17 1.06 1.16 1.38 1.20 0.94 0.88 0.88 0.83 0.85 0.87 0.89 0.98 1.06 1.14 1.25 1.21 1.14 1.17 1.17 1.20 1.23 1.36 1.41 1.40 1.41 1.45 1.41 1.31 1.30 1.29 1.24 1.21 1.23 1.28 1.32 1.37 1.37 1.40
0.32 0.40 0.50 0.63 0.72 0.90 1.05 1.18 1.06 1.18 1.14 1.12 1.16 1.22 1.05 0.74 0.63 0.66 0.62 0.63 0.67 0.76 0.88 0.93 1.08 1.17 1.10 0.99 0.99 1.04 1.01 1.03 1.10 1.18 1.18 1.24 1.31 1.37 1.33 1.26 1.22 1.12 1.05 1.04 1.07 1.08 1.18 1.19 1.17
0.27 0.41 0.51 0.67 0.75 0.80 0.93 1.03 0.67 0.80 0.82 0.83 0.91 0.80 0.69 0.56 0.46 0.57 0.57 0.52 0.55 0.59 0.66 0.75 0.87 0.99 0.97 0.93 0.94 0.99 1.03 1.00 0.98 1.03 1.03 1.04 1.09 1.08 1.05 1.04 1.11 1.12 1.09 1.08 1.06 1.03 1.01 1.06 1.08

GEFSSGP_prec_meanprecacc_192.txt.gz
Total_Precipitation_Accumulation
0.02 0.08 0.23 0.46 0.76 1.24 1.44 0.94 0.70 0.64 0.54 0.51 0.44 0.37 0.42 0.54 0.64 1.01 0.61 0.29 0.15 0.11 0.14 0.22 0.28 0.22 0.20 0.21 0.26 0.28 0.28 0.26 0.26 0.27 0.31 0.37 0.48 0.57 0.54 0.56 0.68 0.73 0.67 0.62 0.64 0.56 0.50 0.50 0.42
0.02 0.10 0.26 0.54 1.08 1.70 1.43 0.73 0.58 0.61 0.49 0.50 0.50 0.45 0.47 0.51 0.42 0.34 0.37 0.28 0.14 0.10 0.14 0.17 0.23 0.24 0.21 0.21 0.25 0.28 0.29 0.27 0.29 0.33 0.35 0.40 0.44 0.48 0.49 0.55 0.66 0.72 0.66 0.62 0.48 0.42 0.38 0.36 0.29
0.06 0.15 0.27 0.53 1.01 1.44 1.08 0.60 0.45 0.45 0.44 0.54 0.67 0.58 0.59 0.58 0.48 0.42 0.39 0.26 0.18 0.15 0.12 0.21 0.27 0.29 0.28 0.22 0.24 0.27 0.31 0.31 0.32 0.35 0.39 0.41 0.42 0.45 0.44 0.48 0.58 0.57 0.50 0.43 0.37 0.37 0.32 0.28 0.23
0.07 0.20 0.35 0.47 0.64 0.59 0.59 0.57 0.42 0.50 0.61 0.59 0.66 0.77 0.67 0.51 0.48 0.54 0.53 0.39 0.26 0.21 0.18 0.24 0.32 0.32 0.33 0.27 0.26 0.30 0.33 0.34 0.32 0.34 0.38 0.40 0.43 0.44 0.42 0.43 0.49 0.47 0.43 0.37 0.37 0.38 0.33 0.28 0.24
0.08 0.22 0.38 0.45 0.50 0.41 0.44 0.49 0.45 0.51 0.56 0.57 0.61 0.90 0.88 0.67 0.56 0.56 0.52 0.50 0.36 0.42 0.36 0.35 0.41 0.42 0.40 0.33 0.29 0.30 0.32 0.36 0.35 0.35 0.37 0.37 0.40 0.41 0.40 0.40 0.39 0.37 0.38 0.36 0.37 0.38 0.32 0.35 0.35
0.08 0.20 0.36 0.35 0.36 0.32 0.38 0.45 0.45 0.51 0.57 0.66 0.79 1.07 1.04 0.84 0.81 0.78 0.78 0.69 0.50 0.57 0.56 0.49 0.50 0.50 0.50 0.41 0.37 0.38 0.37 0.36 0.36 0.37 0.34 0.34 0.34 0.37 0.38 0.37 0.33 0.29 0.28 0.31 0.37 0.41 0.37 0.37 0.42
0.06 0.14 0.26 0.25 0.23 0.29 0.32 0.31 0.39 0.58 0.79 0.88 0.98 1.21 1.12 1.24 1.20 1.10 1.12 1.00 0.76 0.70 0.68 0.61 0.57 0.52 0.56 0.52 0.46 0.46 0.46 0.43 0.41 0.40 0.35 0.32 0.32 0.34 0.35 0.36 0.33 0.30 0.29 0.30 0.34 0.37 0.35 0.35 0.39
0.04 0.08 0.13 0.20 0.21 0.24 0.26 0.26 0.30 0.46 0.81 0.89 0.92 1.06 1.32 1.23 1.27 1.53 1.50 1.43 1.21 1.07 0.85 0.73 0.73 0.72 0.67 0.64 0.55 0.54 0.49 0.49 0.49 0.44 0.41 0.40 0.44 0.43 0.42 0.40 0.38 0.38 0.38 0.35 0.34 0.38 0.36 0.38 0.36
0.03 0.09 0.11 0.14 0.19 0.18 0.19 0.24 0.29 0.40 0.57 0.78 0.96 0.91 1.02 0.97 1.13 1.53 1.75 1.90 1.80 1.42 1.19 0.98 0.89 0.87 0.81 0.73 0.66 0.71 0.68 0.65 0.64 0.61 0.58 0.57 0.69 0.69 0.63 0.56 0.60 0.59 0.59 0.61 0.59 0.62 0.58 0.55 0.45
0.03 0.09 0.09 0.08 0.12 0.14 0.13 0.17 0.21 0.41 0.84 1.18 1.27 1.03 1.02 1.13 1.49 1.80 1.85 1.87 1.95 1.55 1.27 1.19 1.11 0.99 0.91 0.78 0.84 1.06 0.96 0.88 0.90 0.95 0.88 0.95 1.06 1.04 0.75 0.78 0.98 1.10 1.16 1.13 1.19 1.31 1.05 0.85 0.86
0.02 0.04 0.06 0.07 0.08 0.07 0.07 0.12 0.19 0.36 0.84 1.16 1.29 1.22 1.33 1.39 1.73 2.08 2.19 2.00 1.99 1.85 1.53 1.42 1.33 1.23 1.23 1.31 1.16 1.21 1.21 1.23 1.23 1.24 1.25 1.28 1.14 1.03 0.99 1.12 1.36 1.55 1.60 1.57 1.85 1.89 1.41 1.46 1.76
0.01 0.01 0.03 0.06 0.08 0.05 0.06 0.11 0.27 0.43 0.69 0.95 1.03 1.50 1.71 1.65 1.96 2.14 2.26 2.33 2.29 2.21 1.88 1.68 1.58 1.58 1.62 1.57 1.50 1.36 1.37 1.38 1.44 1.51 1.48 1.58 1.66 1.58 1.58 1.66 1.71 1.89 2.02 2.27 2.35 2.46 2.13 2.08 1.93
0.01 0.01 0.03 0.05 0.07 0.07 0.09 0.15 0.22 0.48 0.63 0.83 1.04 1.43 1.64 1.59 1.95 2.23 2.56 2.65 2.66 2.41 2.09 2.04 1.80 1.71 1.76 1.85 1.90 1.71 1.80 1.74 1.72 1.80 1.88 1.93 2.13 2.13 2.11 2.00 2.02 1.95 2.15 2.38 2.70 2.61 2.84 2.76 2.42
0.01 0.03 0.03 0.04 0.06 0.11 0.25 0.34 0.32 0.59 0.67 0.85 1.09 1.48 1.58 1.55 1.77 1.78 2.17 2.52 2.63 2.38 2.18 2.13 2.00 2.04 2.14 2.11 2.13 2.19 2.21 2.20 2.12 2.06 2.09 2.14 2.35 2.57 2.52 2.30 2.28 2.17 2.23 2.55 2.78 2.80 3.23 3.06 2.89
0.02 0.06 0.08 0.09 0.13 0.20 0.30 0.51 0.53 0.67 0.72 0.98 1.05 1.25 1.41 1.39 1.51 1.65 1.92 2.24 2.36 2.16 2.24 2.37 2.48 2.67 2.78 2.75 2.69 2.61 2.64 2.56 2.55 2.68 2.66 2.68 2.67 2.71 2.60 2.48 2.37 2.47 2.57 2.73 2.77 2.88 3.23 3.00 2.91
0.04 0.13 0.21 0.21 0.21 0.27 0.45 0.90 0.83 0.88 0.84 0.91 0.97 1.13 1.25 1.28 1.41 1.70 1.87 2.09 2.28 2.20 2.29 2.50 2.60 2.95 3.15 3.17 3.23 3.15 3.08 2.95 3.01 3.02 3.00 2.97 2.88 2.76 2.83 2.61 2.41 2.61 2.73 2.89 3.06 3.02 3.10 3.15 3.13
0.07 0.14 0.22 0.27 0.19 0.21 0.38 0.73 0.70 0.81 0.96 0.90 0.93 0.99 1.06 1.11 1.21 1.42 1.68 1.90 2.20 2.54 2.76 3.05 3.14 3.07 3.16 3.35 3.47 3.27 3.18 3.06 2.99 2.90 2.91 2.79 2.68 2.67 2.95 2.78 2.74 2.82 3.01 2.91 2.71 3.10 3.22 3.19 3.16
0.07 0.13 0.19 0.23 0.22 0.20 0.33 0.55 0.66 0.75 0.87 0.97 0.96 1.05 1.13 1.24 1.46 1.68 1.98 2.16 2.38 2.85 3.16 3.27 3.34 3.55 3.84 4.01 3.90 3.66 3.27 2.98 2.86 2.76 2.64 2.57 2.60 2.62 2.89 2.70 2.72 2.89 3.13 3.19 3.18 3.31 3.25 3.11 3.16
0.05 0.12 0.16 0.19 0.24 0.25 0.36 0.45 0.73 0.92 1.02 1.15 1.29 1.50 1.68 1.86 1.96 2.14 2.43 2.64 2.73 2.82 2.98 3.20 3.57 3.96 4.08 3.94 3.86 3.77 3.44 3.15 2.82 2.53 2.47 2.54 2.47 2.54 2.81 2.58 2.89 2.98 3.07 3.19 3.21 3.37 3.26 3.07 3.20
0.06 0.13 0.17 0.21 0.26 0.26 0.41 0.51 0.75 1.12 1.23 1.20 1.25 1.30 1.37 1.73 1.96 2.19 2.43 2.54 2.48 2.61 2.86 3.22 3.53 3.87 3.84 3.95 4.10 4.02 3.78 3.20 2.83 2.64 2.53 2.48 2.47 2.45 2.56 2.89 2.92 3.00 3.11 3.11 3.04 3.09 2.93 2.70 3.03
0.08 0.12 0.16 0.21 0.32 0.29 0.40 0.74 0.95 1.22 1.33 1.23 1.21 1.22 1.18 1.34 1.61 1.78 1.94 2.09 2.34 2.70 3.08 3.31 3.53 3.65 3.72 3.87 3.96 3.65 3.44 2.99 2.83 2.82 2.64 2.49 2.54 2.56 2.66 2.85 2.92 2.87 2.78 2.84 2.92 2.84 2.72 2.56 2.68
0.10 0.09 0.10 0.16 0.28 0.41 0.50 1.05 1.33 1.52 1.38 1.13 1.18 1.23 1.34 1.44 1.47 1.57 1.69 1.99 2.33 2.67 3.12 3.52 3.53 3.50 3.44 3.58 3.67 3.45 3.09 2.81 2.69 2.70 2.49 2.34 2.29 2.30 2.40 2.47 2.61 2.69 2.65 2.67 2.59 2.57 2.60 2.55 2.44
0.07 0.07 0.08 0.14 0.23 0.39 0.56 0.96 1.38 1.46 1.33 1.08 1.02 1.20 1.42 1.38 1.36 1.47 1.56 1.82 2.04 2.35 2.71 3.09 3.36 3.39 3.25 3.22 3.25 3.28 3.05 2.72 2.54 2.47 2.36 2.29 2.29 2.12 2.08 2.18 2.36 2.40 2.32 2.31 2.44 2.64 2.60 2.45 2.32
0.06 0.07 0.12 0.22 0.40 0.70 0.56 0.70 1.12 1.34 1.22 0.97 0.96 1.11 1.25 1.41 1.42 1.49 1.71 1.88 1.97 2.18 2.46 2.68 2.88 2.93 2.89 2.80 2.81 2.86 2.80 2.69 2.46 2.29 2.29 2.31 2.22 2.03 1.93 1.94 2.04 2.09 2.09 2.06 2.09 2.21 2.27 2.27 2.36
0.07 0.16 0.47 0.80 1.09 0.96 0.61 0.72 1.08 1.02 0.86 0.76 0.83 1.05 1.29 1.51 1.50 1.57 1.74 1.84 1.92 1.99 2.09 2.19 2.26 2.35 2.31 2.27 2.24 2.25 2.27 2.30 2.15 2.09 2.15 2.18 2.10 1.96 1.88 1.79 1.73 1.73 1.75 1.82 2.00 2.03 2.04 2.12 2.25
0.10 0.19 0.55 0.74 0.87 0.84 0.78 1.01 1.07 0.84 0.71 0.71 0.77 0.93 1.18 1.33 1.36 1.43 1.50 1.45 1.43 1.47 1.54 1.63 1.67 1.72 1.71 1.76 1.85 1.85 1.96 1.95 1.89 1.99 1.98 2.02 1.98 1.91 1.76 1.60 1.51 1.47 1.48 1.57 1.77 1.95 1.95 2.04 2.11
0.20 0.25 0.26 0.43 0.51 0.83 1.02 1.14 1.04 0.76 0.86 0.85 0.91 0.97 1.02 1.05 1.05 1.03 1.03 1.09 1.18 1.20 1.23 1.25 1.31 1.34 1.29 1.33 1.47 1.54 1.58 1.62 1.67 1.76 1.78 1.71 1.68 1.56 1.50 1.44 1.41 1.35 1.38 1.43 1.49 1.62 1.64 1.72 1.77
0.21 0.33 0.45 0.65 0.84 0.97 1.03 1.28 1.42 1.25 1.17 1.06 1.16 1.38 1.20 0.94 0.88 0.88 0.84 0.85 0.89 0.92 1.03 1.11 1.20 1.31 1.29 1.22 1.25 1.22 1.27 1.30 1.46 1.53 1.51 1.50 1.54 1.49 1.37 1.34 1.33 1.28 1.24 1.26 1.31 1.36 1.42 1.42 1.44
0.32 0.40 0.50 0.63 0.72 0.92 1.10 1.23 1.09 1.20 1.15 1.12 1.16 1.22 1.05 0.74 0.63 0.67 0.63 0.64 0.69 0.78 0.89 0.96 1.13 1.24 1.17 1.07 1.07 1.13 1.09 1.12 1.21 1.30 1.30 1.35 1.42 1.46 1.40 1.33 1.28 1.17 1.10 1.09 1.13 1.13 1.23 1.24 1.23
0.27 0.41 0.51 0.67 0.75 0.81 0.96 1.06 0.71 0.83 0.83 0.83 0.91 0.80 0.69 0.56 0.47 0.57 0.57 0.53 0.57 0.61 0.68 0.78 0.92 1.05 1.02 0.97 0.99 1.06 1.12 1.09 1.07 1.13 1.15 1.16 1.19 1.17 1.14 1.12 1.19 1.19 1.16 1.13 1.10 1.07 1.06 1.12 1.14